Location: ????????
(54.9045°N, 39.1041°E)
Time: 23:16:15
(UTC+00:00)

ARIANE 1 DEB - Visible Passes

Search period start: 15 September 2024 00:00
Search period end: 25 September 2024 00:00
Orbit: 772 x 939 km, 98.6° (Epoch: 14 September)

Date Brightness Start Highest point End Pass type
(mag) Time Alt. Az. Time Alt. Az. Time Alt. Az.
15 Sep ? 16:57:32 10° SSW 17:02:45 41° W 17:08:13 10° NNW visible
16 Sep ? 16:47:01 10° S 16:52:22 49° W 16:58:00 10° NNW visible
17 Sep ? 16:36:32 10° S 16:42:01 57° W 16:47:46 10° NNW visible
17 Sep ? 18:22:13 10° W 18:24:12 12° WNW 18:26:13 10° WNW visible
18 Sep ? 16:26:06 10° S 16:31:39 67° WSW 16:37:30 10° NNW visible
18 Sep ? 18:10:45 10° WSW 18:13:41 14° W 18:16:41 10° NW visible
19 Sep ? 16:15:42 10° SSE 16:21:19 77° WSW 16:27:13 10° NNW visible
19 Sep ? 17:59:36 10° WSW 18:03:10 17° W 18:06:50 10° NW visible
20 Sep ? 16:05:20 10° SSE 16:11:00 89° WSW 16:16:55 10° NNW visible
20 Sep ? 17:48:37 10° SW 17:52:41 20° W 17:56:52 10° NW visible
21 Sep ? 15:55:01 10° SSE 16:00:40 80° ENE 16:06:36 10° NNW visible
21 Sep ? 17:37:45 10° SW 17:42:12 23° W 17:46:48 10° NW visible
22 Sep ? 17:26:57 10° SSW 17:31:43 27° W 17:36:41 10° NNW visible
23 Sep ? 17:16:14 10° SSW 17:21:16 32° W 17:26:30 10° NNW visible
24 Sep ? 17:05:34 10° SSW 17:10:49 37° W 17:16:17 10° NNW visible
